www.pogodaiklimat.ru

Погода и климат >> Архив погоды >> Россия >> Ненецкий АО >> Имени Федорова


ПОГОДА в Имени Федорова

  • Прогноз погоды в Имени Федорова
  • Монитор погоды в Имени Федорова

АРХИВ ПОГОДЫ в Имени Федорова

Время (UTC), дата Ветер
(напр.,м/с)
 
Видим.   Явления Облачность Т
(С)
Тd
(С)
f
(%)
Тe
(С)
Тes
(С)
Комфортность P
(гПа)
Po
(гПа)
Тmin
(С)
Tmax
(С)
R
(мм)
R24
(мм)
S
(см)
06 17.05 Ю 5 10 км 10/0
[As trans]
+0.8 +0.6 99 -5 -4 1009.2 1007.6
09 17.05 ЮВ 3 20 км 8/4 300 м
[Sc Ac trans]
+2.1 +0.3 88 -2 +1 1009.9 1008.6
12 17.05 ЮВ 3 500 м туман ?/? 0.0 0.0 100 -5 -5 1010.7 1009.3
15 17.05 В 4 4000 м дымка {туман} 1/0
[Ac trans]
-1.3 -1.3 100 -7 -6 1010.7 1009.4 +2.5
18 17.05 В 3 200 м туман ?/? -1.9 -1.9 100 -7 -7 1010.3 1008.9
21 17.05 СВ 5 4000 м слаб. снег {туман} 10/0 300 м
[As op]
-1.3 -1.3 100 -8 -8 1009.0 1007.7
00 18.05 В 4 10 км {снег} 10/0
[As trans]
-0.7 -0.7 100 -7 -6 1009.1 1007.7
03 18.05 В 5 10 км 10/0
[As trans]
-0.7 -0.7 100 -7 -6 1010.7 1009.4 -2.6 0.0
06 18.05 В 5 10 км 10/0
[As trans]
-0.8 -0.9 99 -7 -6 1011.8 1010.5
09 18.05 В 8
{11}
10 км 10/0
[Ac und]
-0.5 -1.7 92 -8 -8 1013.2 1011.8
12 18.05 В 9-12
{14}
10 км 8/0
[Ac trans]
-0.3 -1.7 90 -8 -8 1014.2 1012.8
15 18.05 В 10-13
{14}
10 км 6/0
[Ac trans]
-0.6 -1.6 93 -9 -9 1015.3 1013.9 -0.0
18 18.05 В 10-12
{13}
10 км 3/0
[Ci fib]
-1.3 -2.0 95 -10 -10 1016.5 1015.1
21 18.05 В 6
{11}
4000 м дымка 10/0
[As trans]
-1.6 -2.2 96 -9 -9 1017.5 1016.1
00 19.05 В 6 10 км 6/0
[Ac trans]
-2.2 -2.6 97 -10 -9 1018.0 1016.7
03 19.05 В 7 20 км 3/0
[Ac trans]
-1.6 -2.1 96 -9 -8 1018.4 1017.0 -2.3 0
06 19.05 СВ 5 10 км 8/0
[Ac trans]
-1.3 -1.9 96 -8 -6 1019.4 1018.0
09 19.05 СВ 6 20 км 3/0
[Ac trans]
-1.1 -2.1 93 -8 -5 1019.5 1018.2
12 19.05 СВ 7 20 км ясно -1.3 -2.5 92 -9 -7 1019.7 1018.4
15 19.05 СВ 7
{10}
20 км 8/0
[Ac trans]
-2.0 -3.0 93 -10 -10 1019.8 1018.4 -1.0
18 19.05 В 8
{10}
10 км 3/0
[Ac trans]
-2.3 -3.5 91 -11 -11 1019.1 1017.7
21 19.05 В 8-10
{11}
10 км 6/0
[Ac trans]
-3.5 -4.1 96 -12 -12 1019.1 1017.7
00 20.05 СВ 7
{10}
н/о н/о -4.0 -4.6 96 -12 -12 1019.1 1017.7
03 20.05 СВ 7
{11}
10 км 8/0
[As trans]
-4.0 -4.6 96 -12 -12 1019.4 1018.0 -4.2 0
06 20.05 СВ 7
{10}
10 км 10/0
[Ac und]
-3.6 -4.3 95 -12 -11 1019.5 1018.1
09 20.05 СВ 7 10 км 10/0
[Ac und]
-3.4 -4.3 93 -12 -11 1020.1 1018.7
12 20.05 СВ 7 20 км 8/0
[Ac trans]
-2.4 -3.7 91 -10 -9 1020.7 1019.3
15 20.05 СВ 6
{10}
10 км 9/9 600 м
[Sc]
-2.9 -3.9 93 -10 -10 1020.6 1019.2 -2.4
18 20.05 СВ 5 10 км 10/10 300 м
[Sc]
-2.8 -4.0 91 -10 -10 1020.2 1018.8
21 20.05 СВ 4 10 км 10/10 300 м
[Sc]
-2.9 -4.1 91 -9 -9 1019.6 1018.2
00 21.05 СВ 4 10 км 10/10 600 м
[Sc]
-3.0 -4.3 91 -9 -9 1019.1 1017.8
03 21.05 СВ 2 10 км 10/0
[Ac und]
-3.4 -4.6 91 -8 -7 1018.9 1017.5 -3.5 0
06 21.05 С 3 10 км 10/0
[Ac und]
-4.0 -5.3 91 -9 -7 1018.6 1017.2 -4.1
09 21.05 С 4 10 км 10/0
[Ac und]
-3.7 -5.3 89 -10 -8 1018.2 1016.8
12 21.05 С 4 10 км 10/0
[Ac und]
-3.2 -4.4 91 -9 -8 1017.9 1016.5
15 21.05 СЗ 3 10 км 10/0
[Ac und]
-2.4 -3.2 94 -8 -7 1016.6 1015.2 -2.4
18 21.05 С 4 10 км 10/0
[Ac und]
-2.0 -4.1 86 -8 -8 1015.2 1013.8
21 21.05 С 5 10 км 10/0
[Ac und]
-2.4 -3.6 91 -9 -9 1013.9 1012.5
00 22.05 С 4 10 км 10/0
[Ac und]
-2.3 -4.2 87 -8 -8 1012.9 1011.6
03 22.05 С 5 10 км 10/0
[As trans]
-1.9 -4.2 84 -8 -8 1011.8 1010.4 -2.5 0
06 22.05 С 4 10 км 10/0
[As trans]
-2.9 -3.9 93 -9 -7 1011.3 1009.9 -2.9
09 22.05 С 4 20 км 3/0
[Ac trans]
-1.5 -4.6 79 -7 -2 1011.1 1009.7
12 22.05 С 4 20 км 4/0
[Ac trans]
-1.6 -4.3 82 -7 -4 1010.6 1009.2
15 22.05 С 4 20 км 6/0
[Ac trans]
-1.9 -4.8 81 -8 -7 1009.8 1008.5 -1.4
18 22.05 С 4 20 км 8/0
[Ac trans]
-2.4 -5.4 80 -8 -8 1008.7 1007.4
21 22.05 С 4 10 км 10/0
[Ac und]
-2.9 -5.3 83 -9 -9 1007.8 1006.5
00 23.05 С 2 10 км 10/0
[Ac und]
-3.4 -4.8 90 -8 -7 1007.1 1005.7
03 23.05 З 1 10 км 10/0
[As trans]
-3.5 -4.3 94 -6 -4 1006.3 1004.9 -3.5 0
06 23.05 С 1 10 км 10/0
[As trans]
-2.3 -3.9 89 -5 -1 1005.8 1004.5 -3.5
09 23.05 СЗ 3 10 км 10/0
[As trans]
-2.3 -3.9 89 -7 -4 1005.8 1004.5
12 23.05 СВ 3 2000 м снег 10/0
[As op]
-2.7 -3.2 96 -8 -7 1006.0 1004.7
15 23.05 СВ 2 10 км {снег} 10/4 300 м
[Sc Ac trans]
-2.5 -4.7 85 -6 -6 1005.6 1004.3 -2.1 0.3
18 23.05 ЮВ 2 10 км {снег} 10/0
[Ac und]
-2.8 -4.4 89 -7 -7 1005.5 1004.1
21 23.05 ЮВ 3 4000 м слаб. снег 10/0 300 м
[As op]
-2.9 -4.1 91 -8 -8 1005.4 1004.0
00 24.05 В 6 10 км {снег} 8/4 300 м
[Sc Ac trans]
-2.9 -5.1 85 -10 -10 1005.4 1004.0
03 24.05 В 7 10 км 10/0
[As trans]
-2.4 -7.2 70 -10 -9 1005.2 1003.8 -3.4 0.2 0

 

Местоположение метеостанции Имени Федорова (Ненецкий АО, Россия): широта 70.45 долгота 59.08 высота над уровнем моря 12 м.

В архиве по умолчанию представлена погода в Имени Федорова за последнюю неделю. Архивные данные за месяц целиком и за предыдущие месяцы, начиная с января 2011 года, Вы можете получить, выбрав интересующий диапазон дат из раскрывающегося списка и нажав кнопку "Ввод!".


*Определитесь, кто Вы:
робот инопланетянин человек

Внимание! Время в таблицах - всемирное. Для получения местного времени необходимо прибавить поправку, которая равна 3 ч.

Смотрите также архив погоды в соседних городах и на ближайших метеорологических станциях:

Погода на Мысе Белый Нос (Ненецкий АО, Россия) (104 км)
Погода в Амдерме (Ненецкий АО, Россия) (124 км)
Погода в Варандее (Ненецкий АО, Россия) (186 км)
Погода на Мысе Константиновском (Ненецкий АО, Россия) (253 км)
Погода в Усть-Каре (Ненецкий АО, Россия) (261 км)
Погода в Ходоварихе (Ненецкий АО, Россия) (266 км)
Погода в Марресале (Ямало-Ненецкий АО, Россия) (304 км)
Погода в Малых Кармакулах (Архангельская область, Россия) (310 км)
Погода в Хорей-Вере (Ненецкий АО, Россия) (339 км)
Погода в Сенгейском Шаре (Ненецкий АО, Россия) (376 км)

Пояснения к столбцам:

Ветер - указаны скорость ветра в м/с - средняя за 10 мин, порывы в срок и между сроками (в фигурных скобках) и направление, откуда дует ветер: С - северный, СВ - северо-восточный, В - восточный, ЮВ - юго-восточный, Ю - южный, ЮЗ - юго-западный, З - западный, СЗ - северо-западный.
Видимость - горизонтальная дальность видимости в метрах или километрах. При видимости от 1 до 10 км при отсутствии осадков обычно наблюдается дымка, при ухудшении видимости до 1 км и менее - туман. В сухую погоду видимость может ухудшаться дымом, пылью или мглою.
Явления - указаны атмосферные явления, наблюдавшиеся в срок или в последний час перед сроком; фигурными скобками обозначены явления, наблюдавшиеся между сроками (за 1-3 часа до срока); квадратными скобками обозначены град или гололедные отложения с указанием их диаметра в мм.
Облачность - указаны через наклонную черту общая и нижняя облачность в баллах и высота нижней границы облаков в метрах; квадратными скобками обозначены формы облаков: Ci - перистые, Cs - перисто-слоистые, Cc - перисто-кучевые, Ac - высококучевые, As - высокослоистые, Sc - слоисто-кучевые, Ns - слоисто-дождевые, Cu - кучевые, Cb - кучево-дождевые. Подробнее классификацию облаков см. в Атласе облаков (PDF).
T - Температура воздуха - температура, измеренная на высоте 2 м над землей.
Td - Температура точки росы - температура, при понижении до которой содержащийся в воздухе водяной пар достигнет насыщения.
f - Относительная влажность воздуха - влажноcть воздуха, измеренная на высоте 2 м над землей.
Te - Эффективная температура - температура, которую ощущает одетый по сезону человек в тени. Характеристика душности погоды. При расчете учитывается влияние влажности воздуха и скорости ветра на теплоощущения человека.
Tes - Эффективная температура на солнце - температура, которую ощущает человек, с поправкой на солнечный нагрев. Характеристика знойности погоды. Зависит от высоты солнца над горизонтом, облачности и скорости ветра. Ночью, в пасмурную погоду, а также при ветре 12 м/с и более поправка равна нулю.
P - Атмосферное давление - приведенное к уровню моря атмосферное давление.
Po - Атмосферное давление - измеренное на уровне метеостанции атмосферное давление.
Tmin - Минимальная температура - минимум температуры воздуха на высоте 2 м над землей.
Tmax - Максимальная температура - максимум температуры воздуха на высоте 2 м над землей.
R - Количество осадков - Количество выпавших осадков за период времени, мм. При наведении курсора мыши на число - период времени, за который выпало указанное количество осадков.
R24 - Количество осадков - Количество выпавших осадков за 24 часа, мм.
S - Снежный покров - Высота снежного покрова, см. При наведении курсора мыши на число - состояние снежного покрова и степень покрытия местности в баллах.